sat.trackr.live / text

‹ back to catalog

STARLINK-2430

NORAD 48100 · 2021-027J

PAYLOAD ACTIVE UNKNOWN

§ Identity

Operator
Country
US
Launch date
2021-04-07
Launch site
AFETR
Launch vehicle
Mass (kg)
RCS (m²)

Purposes: comms

External: N2YO · Heavens-Above · Gunter

§ Orbital elements

Epoch: 2026-09-11T14:33:07.169472Z

Period
94.01 min
Inclination
53.1622°
Eccentricity
0.0001111
Mean motion
15.31707311 rev/d
Perigee alt
470.0 km
Apogee alt
471.5 km
Semi-major
6,848.9 km
B*
3.7794e-6
RAAN
7.2748°
Arg perigee
87.8442°
Mean anomaly
272.2686°
Rev number
30,117

§ Raw data

STARLINK-24301 48100U 21027J   26254.60633298 -.00000248  00000+0  37794-5 0  99902 48100  53.1622   7.2748 0001111  87.8442 272.2686 15.31707311301173

JSON: /api/v1/satellites/48100 · /tle

For live sub-satellite position, see the globe view (requires WebGL).

§ Visibility from observer

Set your observer location to see the next 7 days of passes ≥ 10°. The values pass through the URL so the page stays shareable.

No JS? Fill the form by hand. The geolocation button needs JavaScript.